Regional Weather Roundup
Issued by NWS

Home | Current Version | Previous Version | Graphics & Text | Print | Product List | Glossary On
Versions: 1 2 3 4 5 6 7 8 9 10 11 12 13 14 15 16 17 18 19 20 21 22 23 24 25 26 27 28 29 30 31 32 33 34 35 36 37 38 39 40 41 42 43 44 45 46 47 48 49 50
000
ASUS45 KBOU 081107
RWRCO

WEATHER ROUNDUP FOR COLORADO
NATIONAL WEATHER SERVICE DENVER/BOULDER CO
400 AM MST THU DEC 08 2016

NOTE: "FAIR" INDICATES FEW OR NO CLOUDS BELOW 12000 FEET WITH NO
SIGNIFICANT WEATHER AND/OR OBSTRUCTIONS TO VISIBILITY.

COZ001>005-013-030-031-081200-
...NORTHWEST COLORADO...

CITY           SKY/WX    TMP DP  RH WIND       PRES   REMARKS
CRAIG          FAIR      -8 -15  71 CALM      30.30S
HAYDEN         FAIR      -4 -13  65 E13       30.26S WCI -23
MEEKER         FAIR      -2  -9  72 SE5       30.27F WCI -12
MOUNT WERNER   NOT AVBL
STEAMBOAT SPGS FAIR      -9 -13  83 CALM      30.26F
WALDEN           N/A    -18 -26  69 CALM      30.20S
$$

COZ006>008-011-081200-
...WEST CENTRAL VALLEYS...

CITY           SKY/WX    TMP DP  RH WIND       PRES   REMARKS
GRAND JUNCTION FAIR      19   7  59 E7        30.32F WCI  10
MONTROSE       FAIR      11   4  73 SE6       30.33S WCI   1
EAGLE          FAIR      -7 -11  83 E3        30.36S
RIFLE          FAIR       7   0  73 E5        30.34S WCI  -2
DELTA          FAIR      15   4  61 CALM      30.34F
NUCLA          CLOUDY    12   1  62 CALM      30.32S
$$

COZ017>023-064>068-081200-
...SOUTHWEST COLORADO...

CITY           SKY/WX    TMP DP  RH WIND       PRES   REMARKS
DURANGO        FAIR       7  -2  66 CALM      30.24F
CORTEZ         FAIR       9   4  80 SE5       30.27S WCI   1
PAGOSA SPRINGS FAIR       4  -2  73 CALM      30.22F
TELLURIDE      CLOUDY    10  -8  43 SE3       30.17R
WOLF CREEK PAS FAIR      -2  -9  71 SW16G22   30.09F WCI -23
$$

COZ009-010-012-014-032>034-037-058>063-081200-
...CENTRAL COLORADO...

CITY           SKY/WX    TMP DP  RH WIND       PRES   REMARKS
ASPEN          CLOUDY    -3  -8  79 CALM      30.19F
BUENA VISTA    CLOUDY     1  -7  69 NW9       30.21F WCI -15
COPPER MTN     FAIR       1 -22  32 MISG      29.98F
BERTHOUD PASS  FAIR     -11 -22  58 NW18G24   29.92S WCI -36
COTTONWOOD PAS HAZE       1  -4  78 CALM      30.08F VSB 1
GUNNISON       CLOUDY    -6 -12  75 CALM      30.29S
KREMMLING      FOG      N/A N/A N/A CALM      30.31S VSB 1/4
LEADVILLE      FAIR     -14 -20  74 NE3       30.07F
MONARCH PASS   MOCLDY    -2  -8  78 W25       30.12S WCI -27
SALIDA         CLOUDY     3  -2  79 W3        30.32F
SUNLIGHT       CLOUDY   N/A N/A N/A SW12      30.11S
WILKERSON PASS FAIR      -4  -9  77 SW12      30.03S WCI -22
$$

COZ069>075-081200-
...SAN LUIS VALLEY/SANGRE DE CRISTO MOUNTAINS...

CITY           SKY/WX    TMP DP  RH WIND       PRES   REMARKS
ALAMOSA        FAIR      -7 -11  83 CALM      30.22F
LA VETA PASS   FAIR       5   1  85 NE22G29   30.08F WCI -16
SAGUACHE       FAIR       3  -6  66 N13       30.21F WCI -14
$$

COZ035-036-038>040-081200-
...NORTHERN COLORADO FRONT RANGE...

CITY           SKY/WX    TMP DP  RH WIND       PRES   REMARKS
DENVER INTL AP FAIR      -7 -11  83 S8        30.36F WCI -23
DMNS CITY PARK   N/A      2  -1  85 E8        30.38F WCI -12
AURORA         PTCLDY    -2  -5  85 SW5       30.35F WCI -12
FRONT RANGE AP FAIR      -6 -11  77 S6        30.36F WCI -18
ERIE MUNI ARPT CLOUDY     0  -4  85 CALM      30.40F
BOULDER MUN AP FLURRIES   7   1  78 CALM      30.38F
CENTENNIAL     FAIR      -6 -10  83 CALM      30.33F
BROOMFIELD     FLURRIES   9   5  85 CALM      30.35F
FORT COLLINS   FAIR      -2  -6  84 N3        30.42S
LONGMONT       CLOUDY     7   3  83 CALM      30.43S
$$

COZ041-046-047-076>085-087-088-081200-
...PIKES PEAK/PALMER DIVIDE AND SOUTHERN FOOTHILLS...

CITY           SKY/WX    TMP DP  RH WIND       PRES   REMARKS
COLO. SPRINGS  LGT SNOW   7   3  84 S6        30.33F FOG     WCI  -3
A. F. ACADEMY  CLOUDY     5   1  85 S3        30.28S
SCHRIEVER AFB  NOT AVBL
ELLICOTT       LGT SNOW N/A N/A N/A SW3         N/A
FALCON         LGT SNOW   5   2  88 SW7       30.28S WCI  -7
FORT CARSON    FLURRIES   6   2  83 W2        30.33F
LIMON          FAIR     -14 -16  91 N5        30.39S WCI -26
MONUMENT HILL  FAIR      -4  -8  84 SW5       30.25S WCI -15
TRINIDAD       LGT SNOW  11   8  88 SE7       30.36F FOG     WCI   0
$$

COZ042>045-048>051-090-091-081200-
...NORTHEAST COLORADO...

CITY           SKY/WX    TMP DP  RH WIND       PRES   REMARKS
GREELEY ARPT   FAIR     -12 -17  78 CALM      30.46F
AKRON          FAIR      -9 -14  78 W12       30.43F WCI -28
BURLINGTON     FAIR      -1  -8  72 NW13      30.48F WCI -19
WRAY           FAIR      -6 -11  77 NW7       30.52S WCI -20
STERLING       FAIR     -13 -17  84 SW3       30.50S
HOLYOKE        FAIR       1  -6  71 NW9       30.51F WCI -14
FORT MORGAN    FAIR     -12 -18  74 W6        30.46S WCI -26
$$

COZ086-089-092>099-081200-
...SOUTHEAST COLORADO...

CITY           SKY/WX    TMP DP  RH WIND       PRES   REMARKS
PUEBLO         CLOUDY    14   6  70 S6        30.43F WCI   5
LA JUNTA       CLOUDY    12   3  67 CALM      30.49R
LAMAR          FAIR       2  -3  80 CALM      30.51S
SPRINGFIELD      N/A      4   0  83 W3        30.47S
$$



USA.gov is the U.S. government's official web portal to all federal, state and local government web resources and services.